[[{"header":{"parameterUnit":"m.s-1","parameterCategory":1,"la1":30.2991,"la2":30.254,"lo1":-89.0895,"lo2":-89.0444,"dy":0.0017,"dx":0.0017,"nx":28,"ny":28,"refTime":"2024-04-16T03:00:00:Z","depth":0,"parameterNumber":2,"parameterNumberName":"U-component_of_WINDS"},"data":[0,0,0,0,0,0,0,0,0,0,0,0,0,0,0,0,0,0,0,0,0,0,0,0,0,0,0,0,0,0,0,0,0,0,0,0,0,0,0,0,0,0,0,0,0,0,0,0,0,0,0,0,0,0,0,0,0,0,-3.1693,-3.1694,0,-3.18,-3.1801,-3.1802,-3.1805,-3.1803,-3.1802,-3.1801,-3.1908,-3.1912,-3.1916,0,0,0,0,0,0,0,0,0,0,0,0,0,-3.1489,-3.1493,-3.1693,-3.1694,-3.1695,-3.1799,-3.1801,-3.1802,-3.1805,-3.1803,-3.1802,-3.18,-3.1907,-3.1911,-3.1916,0,0,0,0,0,0,0,0,0,0,0,0,0,-3.1585,-3.1494,-3.1692,-3.1709,-3.1712,-3.1799,-3.1801,-3.1803,-3.1805,-3.1803,-3.1801,-3.1799,-3.1905,-3.1911,-3.1917,-3.1994,0,0,-3.1936,-3.1938,0,0,0,0,0,0,0,0,-3.1579,-3.1592,-3.1705,-3.1708,-3.1711,-3.1787,-3.1768,-3.1867,-3.1806,-3.177,-3.1801,-3.1798,-3.1869,-3.1878,-3.1902,-3.1999,-3.2004,-3.1936,-3.194,-3.1943,-3.1944,0,0,0,0,0,0,0,-3.1573,-3.1588,-3.1735,-3.1707,-3.1711,-3.1711,-3.1722,-3.1787,-3.1829,-3.1773,-3.1773,-3.1786,-3.187,-3.1896,-3.1905,-3.2005,-3.1936,-3.1942,-3.1945,-3.1948,-3.217,-3.2173,0,0,0,0,0,0,-3.1563,-3.1582,-3.1732,-3.1738,-3.1639,-3.1716,-3.1729,-3.1764,-3.1828,-3.1836,-3.1787,-3.1785,-3.1887,-3.1898,-3.1909,-3.2002,-3.1943,-3.1948,-3.1952,-3.2168,-3.2171,-3.2173,0,0,0,0,0,0,-3.1559,-3.1576,-3.1727,-3.166,-3.168,-3.1722,-3.1762,-3.1768,-3.1794,-3.184,-3.1847,-3.1806,-3.1886,-3.19,-3.1973,-3.2006,-3.1951,-3.1957,-3.2166,-3.2169,-3.2172,-3.219,0,0,0,0,0,0,-3.1553,-3.1575,-3.1605,-3.1661,-3.1683,-3.179,-3.1764,-3.1771,-3.1805,-3.1803,-3.1859,-3.1867,-3.1885,-3.1964,-3.1979,-3.2013,-3.1961,-3.2163,-3.2167,-3.2171,-3.2187,-3.2194,-3.22,0,0,0,0,0,-3.1546,-3.1605,-3.1606,-3.1624,-3.1722,-3.1792,-3.1805,-3.1825,-3.1807,-3.1837,-3.1867,-3.1865,-3.2001,-3.1971,-3.1988,-3.2025,-3.2161,-3.2166,-3.2171,-3.2184,-3.2192,-3.22,0,0,0,0,0,0,-3.1551,-3.1613,-3.1615,-3.1695,-3.1738,-3.1792,-3.1831,-3.1834,-3.1883,-3.1879,-3.1903,-3.1915,-3.1987,-3.2014,-3.198,-3.2103,-3.2078,-3.2087,-3.2082,-3.2091,-3.2097,-3.2088,-3.1967,0,0,0,0,0,-3.1562,-3.1614,-3.1666,-3.1731,-3.1753,-3.1788,-3.182,-3.1832,-3.1878,-3.1896,-3.1931,-3.1975,-3.2027,-3.2061,-3.2112,-3.2192,-3.2203,-3.2225,-3.2232,-3.2237,-3.2243,-3.2287,-3.2297,-3.219,-3.219,-3.219,0,0,-3.1584,-3.1624,-3.1656,-3.1733,-3.1768,-3.1821,-3.1804,-3.1861,-3.19,-3.1904,-3.1975,-3.2002,-3.2053,-3.2129,-3.2165,-3.2154,-3.2276,-3.2243,-3.2247,-3.2251,-3.2293,-3.2303,-3.2312,-3.2193,-3.2193,-3.2192,0,0,-3.1651,-3.1688,-3.1746,-3.1782,-3.1835,-3.1859,-3.1873,-3.1927,-3.1945,-3.2017,-3.2021,-3.2068,-3.2159,-3.2194,-3.2224,-3.2306,-3.2305,-3.2322,-3.2355,-3.2396,-3.2405,-3.2412,-3.244,-3.2449,-3.2329,-3.2329,-3.2329,0,-3.1671,-3.1752,-3.1775,-3.1832,-3.1866,-3.1874,-3.1932,-3.1966,-3.2033,-3.2055,-3.2043,-3.2156,-3.219,-3.2275,-3.2295,-3.2319,-3.2335,-3.2314,-3.2402,-3.241,-3.2417,-3.2443,-3.2454,-3.233,-3.233,-3.233,-3.233,0,-3.1774,-3.183,-3.187,-3.1935,-3.1974,-3.2031,-3.2062,-3.2099,-3.2108,-3.2133,-3.2205,-3.2248,-3.2307,-3.2328,-3.2338,-3.2414,-3.2405,-3.2397,-3.2372,-3.2428,-3.2453,-3.2464,-3.2332,-3.2332,-3.2331,-3.2331,0,0,-3.1845,-3.1923,-3.1938,-3.1967,-3.2027,-3.2071,-3.2129,-3.2187,-3.2217,-3.2264,-3.2312,-3.2389,-3.2382,-3.2416,-3.243,-3.2467,-3.2527,-3.2454,-3.2455,-3.2464,-3.2611,-3.2615,-3.2627,-3.2528,-3.253,-3.2532,-3.2607,0,-3.1917,-3.202,-3.2043,-3.2132,-3.2183,-3.2192,-3.2242,-3.2284,-3.2309,-3.2356,-3.2384,-3.2437,-3.2424,-3.2445,-3.2482,-3.2512,-3.2556,-3.2507,-3.2572,-3.2574,-3.2556,-3.264,-3.2645,-3.2713,-3.2617,-3.2618,-3.262,0,-3.2014,-3.2064,-3.2157,-3.2211,-3.2233,-3.2278,-3.2333,-3.2379,-3.2427,-3.2442,-3.2481,-3.2491,-3.2551,-3.2525,-3.2607,-3.2573,-3.2602,-3.262,-3.2624,-3.2628,-3.2598,-3.2645,-3.2736,-3.2745,-3.2636,-3.2634,-3.2633,0,-3.2055,-3.2145,-3.2212,-3.2238,-3.2302,-3.2333,-3.2361,-3.2408,-3.2441,-3.249,-3.2512,-3.2567,-3.2596,-3.2638,-3.2663,-3.2642,-3.2743,-3.2719,-3.2756,-3.2755,-3.2774,-3.2772,-3.2868,-3.2797,-3.2796,-3.2796,-3.2796,0,-3.2131,-3.2188,-3.2231,-3.2272,-3.2336,-3.2362,-3.2424,-3.2452,-3.2493,-3.2539,-3.2551,-3.2594,-3.2626,-3.2673,-3.2693,-3.2757,-3.2771,-3.2784,-3.2788,-3.2782,-3.278,-3.2799,-3.2794,-3.2799,-3.2798,-3.2798,-3.2797,0,-3.2186,-3.2217,-3.2291,-3.2347,-3.2362,-3.2406,-3.2453,-3.2493,-3.2519,-3.2578,-3.2593,-3.2633,-3.269,-3.2719,-3.279,-3.2803,-3.2875,-3.2877,-3.2858,-3.2859,-3.2893,-3.2889,-3.3003,-3.3018,-3.2938,-3.2939,-3.294,0,-3.2232,-3.2275,-3.2336,-3.2368,-3.2397,-3.2449,-3.2483,-3.2511,-3.2546,-3.2605,-3.2637,-3.2695,-3.2742,-3.2831,-3.2866,-3.292,-3.2923,-3.2959,-3.2931,-3.2923,-3.2921,-3.2917,-3.2921,-3.2963,-3.2964,-3.2965,-3.2965,0,-3.2309,-3.2322,-3.2372,-3.2427,-3.2468,-3.2513,-3.2557,-3.2583,-3.2618,-3.2657,-3.2715,-3.2752,-3.2824,-3.288,-3.2937,-3.2965,-3.2971,-3.2974,-3.2985,-3.2978,-3.2964,-3.297,-3.2869,-3.2971,-3.297,-3.297,-3.2969,-3.2969,-3.2359,-3.2398,-3.2446,-3.2501,-3.2538,-3.2579,-3.2619,-3.265,-3.2699,-3.276,-3.2774,-3.2835,-3.2882,-3.2959,-3.2989,-3.3037,-3.3029,-3.3045,-3.3049,-3.3052,-3.3052,-3.2958,-3.3047,-3.3047,-3.3047,-3.3047,-3.3047,0,-3.2435,-3.2467,-3.2517,-3.2579,-3.2622,-3.2625,-3.2674,-3.2709,-3.2763,-3.2807,-3.2853,-3.2919,-3.2974,-3.3014,-3.307,-3.31,-3.3104,-3.3114,-3.3111,-3.3117,-3.3057,-3.3041,-3.311,-3.311,-3.311,-3.311,-3.311,-3.311,-3.248,-3.2545,-3.2565,-3.2648,-3.268,-3.274,-3.2767,-3.2805,-3.284,-3.2914,-3.2959,-3.2985,-3.3027,-3.3086,-3.3136,-3.3147,-3.3166,-3.3175,-3.3185,-3.3128,-3.3121,-3.3115,-3.31,-3.318,-3.318,-3.3241,-3.3241,-3.3242]},{"header":{"parameterUnit":"m.s-1","parameterCategory":1,"la1":30.2991,"la2":30.254,"lo1":-89.0895,"lo2":-89.0444,"dy":0.0017,"dx":0.0017,"nx":28,"ny":28,"refTime":"2024-04-16T03:00:00:Z","depth":0,"parameterNumber":3,"parameterNumberName":"V-component_of_WINDS"},"data":[0,0,0,0,0,0,0,0,0,0,0,0,0,0,0,0,0,0,0,0,0,0,0,0,0,0,0,0,0,0,0,0,0,0,0,0,0,0,0,0,0,0,0,0,0,0,0,0,0,0,0,0,0,0,0,0,0,0,4.9185,4.9186,0,4.9206,4.9206,4.9206,4.9192,4.9191,4.9191,4.919,4.9209,4.921,4.9211,0,0,0,0,0,0,0,0,0,0,0,0,0,4.9132,4.9133,4.9185,4.9186,4.9186,4.9206,4.9206,4.9206,4.9192,4.9191,4.9191,4.919,4.9209,4.921,4.9211,0,0,0,0,0,0,0,0,0,0,0,0,0,4.9154,4.9134,4.9185,4.9181,4.9181,4.9206,4.9206,4.9206,4.9192,4.9191,4.9191,4.919,4.9208,4.921,4.9211,4.924,0,0,4.9216,4.9217,0,0,0,0,0,0,0,0,4.9153,4.9156,4.9182,4.9182,4.9181,4.9195,4.9194,4.9218,4.9193,4.9188,4.919,4.9189,4.9205,4.9207,4.9213,4.9241,4.9242,4.9217,4.9218,4.9218,4.9219,0,0,0,0,0,0,0,4.9151,4.9155,4.9193,4.9182,4.9182,4.9178,4.918,4.9199,4.9202,4.9188,4.9187,4.919,4.9205,4.9211,4.9213,4.9242,4.9216,4.9218,4.9219,4.922,4.9295,4.9296,0,0,0,0,0,0,4.9151,4.9154,4.9193,4.9194,4.9165,4.918,4.9182,4.9192,4.9201,4.9202,4.9191,4.9189,4.9209,4.9211,4.9214,4.9248,4.9218,4.922,4.9221,4.9294,4.9296,4.9297,0,0,0,0,0,0,4.9149,4.9154,4.9192,4.9174,4.9178,4.9181,4.9193,4.9193,4.9199,4.9203,4.9204,4.9197,4.9208,4.9211,4.9234,4.9248,4.922,4.9222,4.9293,4.9295,4.9296,4.9317,0,0,0,0,0,0,4.9148,4.9154,4.9165,4.9174,4.9179,4.9212,4.9194,4.9194,4.9202,4.92,4.9209,4.921,4.9208,4.9232,4.9236,4.925,4.9223,4.9292,4.9294,4.9296,4.9315,4.9319,4.9322,0,0,0,0,0,4.9146,4.917,4.9166,4.9171,4.9194,4.9213,4.9216,4.9214,4.9204,4.9215,4.9217,4.9209,4.9246,4.9234,4.9238,4.9254,4.9291,4.9293,4.9295,4.9313,4.9318,4.9322,0,0,0,0,0,0,4.9161,4.9171,4.9167,4.9194,4.9203,4.9211,4.9225,4.9219,4.9231,4.9229,4.9225,4.9227,4.9251,4.9255,4.9241,4.9282,4.9267,4.927,4.9279,4.9283,4.9287,4.9285,4.9225,0,0,0,0,0,4.9168,4.9184,4.9191,4.9214,4.9219,4.9221,4.923,4.9228,4.9237,4.924,4.9244,4.9253,4.9266,4.9275,4.9288,4.9316,4.9317,4.9328,4.9332,4.9335,4.9338,4.9352,4.9357,4.9304,4.9304,4.9304,0,0,4.9182,4.9189,4.9199,4.9218,4.9225,4.924,4.9225,4.9242,4.9253,4.9242,4.9264,4.9268,4.9277,4.9302,4.9313,4.9306,4.9353,4.9338,4.934,4.9341,4.9355,4.936,4.9365,4.9306,4.9306,4.9305,0,0,4.9215,4.9222,4.9243,4.925,4.9261,4.9262,4.9267,4.9276,4.9278,4.93,4.9292,4.9305,4.9329,4.9336,4.9342,4.9378,4.9371,4.9383,4.9402,4.9416,4.942,4.9424,4.9436,4.9441,4.9385,4.9385,4.9385,0,4.923,4.9255,4.9253,4.9272,4.928,4.9272,4.9292,4.9299,4.9313,4.9318,4.931,4.934,4.9345,4.9372,4.9381,4.9386,4.9391,4.9381,4.942,4.9424,4.9427,4.9439,4.9443,4.9387,4.9387,4.9386,4.9386,0,4.9273,4.929,4.9305,4.9319,4.9329,4.9348,4.9349,4.936,4.9357,4.9359,4.9381,4.9388,4.9402,4.9408,4.9405,4.9434,4.9429,4.9421,4.9405,4.9433,4.9444,4.9449,4.9389,4.9388,4.9388,4.9387,0,0,4.9315,4.933,4.9335,4.9342,4.9353,4.9366,4.9384,4.9399,4.9407,4.9418,4.9432,4.9453,4.9445,4.9453,4.945,4.9463,4.9491,4.9453,4.9453,4.9459,4.9523,4.9529,4.9534,4.9487,4.9488,4.9488,4.9522,0,4.9348,4.9382,4.9381,4.9412,4.9427,4.942,4.9436,4.9444,4.9447,4.946,4.9462,4.9477,4.9466,4.947,4.9482,4.9485,4.9504,4.9483,4.95,4.95,4.9497,4.954,4.9546,4.9577,4.9526,4.9527,4.9527,0,4.9391,4.9404,4.9436,4.9446,4.9452,4.9467,4.948,4.9492,4.9502,4.9503,4.9511,4.9507,4.9526,4.951,4.9535,4.9521,4.9528,4.953,4.9531,4.9532,4.9515,4.9541,4.9587,4.9592,4.9534,4.9534,4.9533,0,4.9419,4.9443,4.9466,4.9472,4.9483,4.9494,4.9499,4.9508,4.9516,4.9528,4.9533,4.9546,4.9553,4.9563,4.9563,4.9552,4.9587,4.9572,4.9588,4.9588,4.9595,4.9595,4.9642,4.9601,4.9601,4.9601,4.9601,0,4.9455,4.9475,4.9478,4.9492,4.9514,4.9513,4.9534,4.9538,4.9546,4.956,4.9555,4.9568,4.9567,4.958,4.9579,4.9599,4.9603,4.9603,4.9603,4.9604,4.9603,4.9607,4.9605,4.9602,4.9602,4.9602,4.9601,0,4.9489,4.9492,4.9516,4.9525,4.9528,4.9544,4.9552,4.9564,4.9567,4.9584,4.9588,4.9592,4.9607,4.9608,4.9625,4.9624,4.9649,4.9646,4.9646,4.9645,4.966,4.9659,4.9712,4.9719,4.9674,4.9674,4.9674,0,4.9512,4.9527,4.9539,4.9548,4.9554,4.9569,4.9578,4.9578,4.9588,4.96,4.9611,4.9625,4.9637,4.9661,4.9665,4.9678,4.9675,4.9693,4.9677,4.9677,4.9674,4.9673,4.9674,4.9696,4.9696,4.9696,4.9697,0,4.9552,4.9553,4.9567,4.9581,4.9592,4.9603,4.9614,4.9621,4.9623,4.9633,4.9649,4.9658,4.9676,4.969,4.9703,4.9708,4.9702,4.9702,4.9706,4.9706,4.9705,4.9705,4.9653,4.9701,4.97,4.97,4.97,4.97,4.9581,4.9594,4.9604,4.962,4.9628,4.9637,4.965,4.9654,4.9667,4.9682,4.9681,4.9699,4.9707,4.9724,4.973,4.9743,4.9736,4.9743,4.9744,4.9746,4.9747,4.9704,4.9745,4.9745,4.9745,4.9745,4.9745,0,4.962,4.9627,4.9641,4.9656,4.9668,4.9663,4.9674,4.9684,4.97,4.9709,4.9721,4.9738,4.9752,4.9757,4.9771,4.978,4.9778,4.9784,4.9782,4.9783,4.9752,4.9747,4.9785,4.9785,4.9785,4.9785,4.9785,4.9785,4.9642,4.9664,4.9666,4.9692,4.9698,4.9715,4.9722,4.9731,4.9738,4.9758,4.977,4.9774,4.9781,4.9795,4.9807,4.9808,4.9813,4.982,4.982,4.979,4.9786,4.9782,4.9777,4.9821,4.9821,4.985,4.985,4.985]}]]